Temp
62 62 62 62 61 61 61 60 59 58 57 57 56 56 56 56 56 56 56 56 56 56 56 57 58 58 53 52 56 67 70 69 66 65 61 59 55 50 46 49 52 48 50 53 54 55 55
62 61 61 61 61 61 61 60 59 57 57 57 56 56 56 56 56 56 56 55 55 55 56 57 58 58 51 49 67 66 67 67 64 62 59 58 54 56 50 49 46 51 51 52 52 52 52
62 61 61 61 60 60 60 59 58 57 57 56 56 55 55 55 55 55 55 55 55 55 56 57 58 57 50 55 63 62 66 62 60 61 58 59 60 53 53 49 53 53 45 47 47 49 50
62 61 61 60 60 59 59 58 58 57 57 56 56 55 55 54 54 54 54 54 54 55 56 57 58 53 50 68 62 65 65 65 65 64 62 63 62 56 51 53 50 45 42 35 47 51 52
62 61 61 60 59 59 58 58 57 57 57 56 56 55 54 54 54 54 54 54 54 56 57 57 56 52 51 69 61 63 61 61 63 64 63 69 60 50 49 40 35 37 31 36 40 50 47
61 61 60 60 59 58 58 57 57 57 56 56 55 55 54 54 54 53 53 54 55 56 58 61 60 50 58 57 61 65 63 65 60 57 56 53 46 41 38 36 26 31 31 36 36 42 45
61 61 61 60 59 58 58 58 56 56 56 55 55 54 54 54 54 53 49 48 50 51 52 51 52 54 57 63 64 61 63 59 56 52 42 46 38 33 35 38 41 39 35 34 41 45 42
60 60 60 60 59 58 58 58 56 55 55 55 54 54 54 54 53 53 49 48 49 50 47 56 56 57 61 59 52 57 61 51 48 40 43 39 34 41 45 43 40 38 36 35 41 45 43
59 60 60 59 59 58 58 57 55 54 54 54 54 53 53 53 53 52 49 51 55 54 40 51 57 57 57 59 52 52 57 51 45 40 39 35 40 47 44 40 38 36 34 35 35 41 43
58 59 59 59 58 57 57 56 55 54 53 53 53 53 52 52 49 47 49 55 55 54 38 45 50 55 57 56 48 58 58 53 45 39 41 39 44 43 39 37 39 31 41 39 37 34 26
58 59 59 59 57 56 55 55 54 53 53 53 53 53 52 51 44 46 52 54 54 51 28 49 50 62 57 51 52 52 55 53 43 41 41 35 38 38 35 38 42 35 42 38 37 32 31
58 58 59 57 56 55 55 54 53 53 52 52 52 52 52 47 42 49 53 53 49 35 28 44 52 50 49 50 50 52 51 54 50 41 40 39 43 40 39 43 42 43 38 38 35 30 21
57 57 58 57 55 54 54 53 52 52 52 52 52 52 49 50 43 49 50 47 32 29 48 42 44 49 45 44 47 47 43 39 34 29 29 34 36 41 44 37 39 37 32 23 22 23 24
57 57 57 55 54 53 52 52 51 50 50 50 51 50 49 49 48 48 47 37 28 42 43 49 47 45 41 45 43 43 39 34 38 35 27 25 25 35 43 36 33 32 30 23 16 20 23
57 57 55 54 53 52 52 51 50 50 50 51 50 42 43 47 48 47 39 23 33 42 46 44 45 38 38 42 41 39 36 31 37 36 26 26 27 39 41 42 38 31 26 36 25 28 24
56 54 53 52 52 51 51 50 50 50 50 50 41 42 43 47 49 44 34 35 40 49 49 47 37 40 33 36 35 34 33 39 38 40 37 32 23 37 40 40 40 36 39 25 28 19 18
53 52 51 51 50 50 50 50 50 50 50 50 43 38 44 49 47 37 27 34 44 50 50 44 39 36 37 34 35 32 32 38 41 40 39 33 28 31 35 28 29 29 26 31 31 26 21
48 48 49 49 49 49 49 49 50 50 50 47 41 32 45 47 35 33 31 40 48 46 49 45 43 41 37 37 34 33 33 37 43 40 32 32 27 23 29 38 39 36 35 33 24 23 28
47 48 48 48 49 49 48 48 49 49 49 40 37 36 45 45 28 30 39 43 46 45 45 44 42 44 43 37 32 36 37 41 43 39 34 34 24 19 26 31 36 31 35 37 33 31 26
48 48 48 48 48 49 48 48 48 49 49 43 37 29 35 38 38 36 36 38 39 47 44 46 42 43 39 36 39 34 35 40 41 39 45 39 28 20 14 22 28 24 31 35 31 25 26
49 49 49 49 49 49 49 49 49 50 50 42 36 32 37 26 31 36 38 41 38 37 44 45 41 40 36 32 33 32 34 35 38 42 37 34 21 25 28 31 31 30 32 31 28 30 25
49 49 49 49 49 50 50 49 49 50 49 39 33 34 38 34 37 36 36 37 38 40 41 38 37 38 38 32 33 30 32 32 31 34 32 32 25 29 27 32 32 30 32 31 33 32 31
50 50 49 50 50 50 49 49 49 49 47 36 39 41 39 36 32 33 34 39 40 41 40 43 41 36 34 36 38 38 37 36 36 32 30 30 27 26 23 30 30 25 26 30 30 33 29
50 50 49 50 50 50 49 49 49 49 46 40 38 39 34 29 33 34 40 41 40 40 36 40 40 36 40 44 40 37 34 34 33 33 36 30 28 27 22 27 13 28 38 36 31 32 32
49 49 49 50 50 50 49 49 49 49 49 40 39 39 35 28 34 37 39 38 39 40 38 39 40 43 42 38 30 28 28 31 34 36 32 34 29 22 22 23 28 29 34 30 28 28 32
48 49 49 50 49 49 49 49 49 49 49 41 39 41 38 32 31 39 36 38 33 33 34 37 42 40 38 31 26 23 19 28 28 31 38 35 32 26 24 20 13 25 35 35 35 23 31
48 49 49 49 49 49 49 49 49 49 49 42 39 41 38 30 35 38 33 34 37 34 30 33 35 35 36 23 23 22 22 31 23 25 27 26 26 23 22 22 22 31 32 36 23 21 32
48 49 49 49 48 49 49 49 49 49 49 43 38 41 38 32 35 40 41 35 35 33 29 33 31 32 27 23 24 21 22 28 26 29 28 24 21 17 21 19 17 32 34 26 29 34 33
48 48 48 48 48 48 48 48 49 49 48 46 37 43 43 35 36 40 42 43 42 40 33 32 32 32 31 26 25 26 23 21 26 18 30 20 24 21 23 22 31 33 33 36 36 32 33
MSLP
1016.13 1016.76 1017.07 1017.19 1017.62 1018.00 1018.09 1018.43 1018.87 1019.19 1019.23 1019.26 1019.36 1019.27 1019.23 1019.17 1019.02 1018.60 1018.54 1018.48 1018.11 1017.83 1017.66 1017.37 1016.75 1016.06 1015.63 1015.35 1014.19 1013.29 1013.00 1012.79 1012.67 1012.82 1013.11 1013.23 1013.30 1013.53 1013.68 1013.72 1013.51 1013.37 1013.13 1012.88 1012.72 1012.28 1011.61
1015.16 1015.62 1016.07 1016.41 1016.81 1017.28 1017.51 1017.90 1018.28 1018.96 1019.24 1018.91 1019.08 1019.08 1019.26 1018.92 1018.69 1018.51 1018.24 1018.05 1017.88 1017.60 1017.22 1016.96 1016.53 1015.97 1015.98 1015.04 1013.33 1013.36 1013.11 1012.84 1013.01 1013.12 1013.29 1013.31 1013.36 1013.45 1013.76 1013.85 1014.17 1013.81 1013.59 1013.24 1012.56 1012.11 1011.58
1013.97 1014.59 1015.12 1015.42 1016.09 1016.46 1016.82 1017.17 1017.71 1018.38 1018.86 1018.77 1018.63 1018.72 1018.86 1018.96 1018.42 1018.15 1017.71 1017.72 1017.52 1017.06 1016.89 1016.56 1016.53 1016.29 1015.92 1014.06 1013.19 1013.28 1013.03 1012.97 1013.01 1013.17 1013.33 1013.05 1013.17 1013.47 1013.91 1014.23 1014.29 1014.13 1014.00 1013.50 1013.03 1012.77 1012.12
1012.47 1012.89 1013.79 1014.47 1014.91 1015.45 1016.04 1016.42 1016.97 1017.69 1018.38 1018.44 1018.63 1018.46 1018.48 1018.67 1018.02 1017.94 1017.26 1017.01 1016.99 1016.58 1016.39 1016.49 1016.31 1016.43 1015.10 1013.18 1013.15 1013.17 1013.09 1012.95 1012.75 1012.77 1012.97 1012.80 1013.05 1013.82 1014.39 1014.68 1014.74 1015.14 1015.09 1014.98 1013.71 1013.15 1012.88
1011.04 1011.87 1012.19 1013.19 1013.92 1014.88 1015.31 1015.54 1016.14 1016.87 1017.53 1017.96 1018.30 1018.41 1018.04 1018.37 1017.77 1017.43 1016.96 1016.65 1016.51 1016.02 1016.19 1016.08 1016.30 1016.22 1014.62 1013.19 1013.25 1013.32 1013.20 1013.21 1013.04 1012.87 1012.89 1012.94 1013.39 1014.61 1015.23 1016.01 1016.50 1016.77 1016.93 1016.21 1014.75 1014.09 1014.06
1009.83 1010.18 1010.72 1011.49 1012.65 1013.32 1014.28 1015.08 1015.64 1016.13 1016.77 1017.21 1017.84 1018.00 1018.09 1017.95 1017.62 1016.93 1016.54 1016.14 1015.87 1015.71 1015.55 1015.76 1016.11 1016.27 1014.53 1013.66 1013.43 1013.38 1013.12 1013.22 1013.45 1013.34 1013.62 1014.18 1015.04 1015.86 1016.79 1017.11 1017.93 1017.95 1017.66 1016.92 1016.07 1014.55 1014.46
1009.11 1008.94 1009.35 1009.90 1011.03 1012.02 1013.02 1013.52 1014.78 1015.60 1015.90 1016.56 1017.30 1017.68 1017.77 1017.59 1017.35 1017.01 1016.65 1016.41 1016.15 1016.08 1015.82 1015.31 1015.27 1014.95 1014.13 1013.76 1013.58 1013.42 1013.34 1013.57 1014.03 1014.48 1015.31 1015.59 1016.68 1017.19 1017.47 1017.72 1017.91 1018.08 1017.80 1017.07 1015.47 1015.36 1014.26
1008.55 1007.80 1007.95 1008.47 1009.31 1010.61 1011.68 1012.67 1013.54 1014.76 1015.50 1016.14 1016.68 1017.08 1017.28 1016.94 1017.01 1016.87 1017.34 1017.13 1016.74 1016.71 1016.01 1014.95 1014.69 1014.41 1014.04 1013.85 1013.81 1013.62 1013.47 1014.18 1014.79 1015.44 1015.81 1016.58 1017.18 1017.37 1017.39 1017.58 1017.92 1018.01 1017.65 1016.66 1014.65 1014.86 1014.45
1007.03 1007.00 1006.61 1007.25 1008.00 1009.18 1010.21 1011.49 1012.70 1014.02 1015.03 1015.33 1016.09 1016.37 1016.58 1017.17 1016.89 1016.72 1017.17 1017.01 1016.77 1016.59 1016.53 1014.94 1014.25 1013.87 1013.64 1013.90 1013.76 1013.59 1013.67 1014.25 1014.97 1015.68 1016.25 1016.75 1017.35 1017.26 1017.40 1017.69 1017.73 1018.01 1017.64 1016.69 1016.46 1014.21 1013.38
1005.10 1005.07 1005.73 1005.43 1006.52 1007.63 1009.08 1010.21 1011.68 1013.02 1014.30 1014.89 1015.16 1015.83 1016.48 1016.93 1016.92 1016.97 1016.91 1016.75 1016.91 1016.56 1016.33 1014.75 1013.95 1013.05 1013.15 1013.51 1013.72 1013.41 1013.59 1014.27 1015.08 1015.81 1016.35 1016.88 1017.33 1017.47 1017.80 1017.90 1017.88 1017.42 1017.28 1017.06 1016.27 1015.77 1014.21
1002.19 1002.15 1002.85 1003.85 1004.99 1006.30 1007.65 1009.29 1010.43 1012.10 1013.59 1014.10 1014.90 1015.21 1016.08 1016.41 1016.69 1016.97 1016.49 1016.51 1016.72 1016.56 1016.08 1013.89 1013.28 1012.62 1012.90 1013.56 1013.58 1013.77 1013.96 1014.36 1015.34 1016.04 1016.76 1017.49 1017.50 1017.53 1017.68 1017.84 1017.75 1017.61 1017.14 1016.84 1015.72 1015.04 1014.73
998.46 998.86 1000.11 1001.76 1003.28 1004.81 1006.22 1007.93 1009.44 1011.27 1012.46 1013.84 1014.91 1014.78 1015.65 1016.43 1016.90 1016.39 1016.16 1016.22 1016.83 1017.61 1014.90 1013.56 1012.88 1012.76 1013.22 1013.56 1013.77 1014.10 1014.60 1014.97 1015.84 1016.62 1017.32 1017.80 1017.46 1017.58 1017.43 1017.57 1017.63 1017.54 1017.46 1015.74 1014.70 1014.75 1014.02
994.50 995.66 997.51 999.62 1001.68 1003.71 1005.82 1007.21 1008.99 1010.48 1011.46 1013.44 1014.57 1014.72 1015.16 1015.54 1015.84 1016.03 1015.89 1016.59 1017.58 1016.10 1013.47 1013.35 1013.03 1013.02 1013.27 1013.77 1014.33 1014.81 1015.77 1016.29 1016.97 1017.48 1018.23 1018.68 1018.11 1017.54 1017.38 1017.42 1017.59 1018.07 1018.07 1017.52 1016.28 1015.09 1012.80
992.22 993.55 995.83 998.15 1000.76 1002.99 1005.20 1006.34 1008.75 1010.81 1011.90 1013.55 1014.19 1014.10 1015.05 1015.28 1015.26 1015.76 1016.09 1016.77 1016.25 1013.56 1013.06 1012.77 1013.11 1013.61 1013.99 1014.19 1015.00 1015.69 1016.45 1017.14 1017.39 1017.78 1018.85 1019.05 1018.51 1018.14 1018.00 1018.24 1018.30 1018.51 1019.03 1019.48 1018.13 1016.15 1013.22
991.67 992.70 994.94 997.32 999.68 1002.44 1004.64 1006.16 1007.79 1010.23 1010.69 1013.60 1014.35 1014.63 1015.18 1014.83 1015.17 1015.65 1016.00 1016.30 1014.11 1013.31 1012.39 1012.64 1013.51 1014.20 1014.70 1015.15 1015.55 1016.23 1016.72 1017.24 1017.43 1017.94 1018.97 1019.14 1019.13 1018.52 1018.44 1018.37 1018.54 1018.90 1019.15 1019.02 1018.50 1016.09 1014.04
991.26 993.32 995.71 998.14 999.63 1002.35 1004.76 1006.26 1007.84 1009.40 1011.38 1012.28 1014.34 1014.62 1014.56 1014.48 1014.86 1015.78 1016.21 1014.84 1013.65 1013.04 1012.54 1012.60 1013.40 1014.02 1015.02 1015.81 1016.59 1016.87 1017.15 1017.39 1017.58 1017.96 1018.48 1019.34 1019.51 1019.00 1018.71 1018.58 1018.63 1018.67 1018.91 1018.87 1018.42 1016.54 1013.85
993.91 994.96 996.81 999.51 1000.93 1003.23 1005.13 1006.09 1008.09 1009.79 1011.58 1011.90 1013.63 1014.11 1014.37 1014.28 1015.03 1015.92 1015.46 1014.46 1013.19 1013.24 1012.62 1013.13 1013.64 1014.32 1015.27 1015.96 1016.66 1017.30 1017.60 1017.63 1017.73 1018.18 1018.62 1019.38 1020.19 1019.90 1019.27 1019.19 1018.85 1019.06 1019.11 1019.18 1018.56 1017.36 1014.77
998.77 999.14 998.43 1000.70 1002.24 1004.18 1005.67 1007.04 1008.51 1009.87 1011.39 1012.27 1012.46 1014.02 1014.07 1014.23 1015.26 1015.45 1014.87 1014.09 1013.00 1013.35 1013.24 1013.32 1013.77 1014.29 1015.19 1016.09 1016.69 1017.10 1017.51 1017.55 1017.72 1018.12 1018.94 1019.64 1020.62 1020.59 1020.08 1018.85 1018.49 1018.93 1019.14 1018.96 1018.35 1016.44 1014.47
1001.37 1001.97 1002.40 1002.72 1003.78 1005.46 1006.58 1007.48 1009.46 1010.39 1010.99 1010.99 1012.42 1014.23 1014.29 1014.10 1014.98 1014.86 1014.32 1013.35 1013.27 1013.37 1013.42 1013.53 1014.01 1014.41 1015.06 1016.10 1016.86 1017.20 1017.56 1018.03 1018.09 1018.54 1018.96 1019.77 1020.72 1020.86 1020.29 1019.82 1019.20 1019.29 1018.89 1018.57 1017.85 1016.43 1014.79
1002.86 1003.46 1003.94 1004.36 1005.12 1006.31 1007.28 1008.55 1009.44 1010.43 1010.87 1010.74 1011.99 1014.10 1014.82 1014.89 1014.51 1014.17 1013.58 1013.60 1013.36 1013.29 1013.59 1013.63 1014.22 1014.74 1015.65 1016.51 1016.90 1017.65 1017.99 1018.42 1018.61 1018.84 1019.24 1019.88 1020.79 1021.48 1021.14 1020.62 1020.27 1019.91 1018.82 1018.54 1017.87 1016.98 1015.41
1003.89 1004.27 1004.77 1005.32 1006.12 1007.00 1008.07 1008.94 1009.64 1010.39 1010.63 1010.71 1012.03 1012.98 1013.31 1014.19 1014.50 1013.77 1013.66 1013.30 1013.07 1013.61 1013.87 1013.97 1014.59 1015.20 1016.07 1017.01 1017.60 1018.23 1018.59 1018.88 1018.96 1019.21 1019.74 1020.38 1021.05 1020.98 1020.45 1020.33 1020.02 1019.64 1019.23 1018.66 1017.97 1017.49 1016.58
1004.50 1004.98 1005.34 1005.89 1006.68 1007.55 1008.38 1009.22 1009.75 1010.35 1010.56 1011.50 1011.72 1012.45 1013.07 1013.13 1013.51 1014.02 1013.69 1013.26 1012.96 1013.57 1014.20 1014.50 1014.98 1015.79 1016.27 1017.25 1017.85 1018.68 1019.14 1019.55 1019.44 1019.72 1020.23 1020.73 1021.04 1020.52 1020.13 1019.58 1019.30 1019.14 1019.29 1018.77 1017.83 1017.64 1016.73
1005.04 1005.51 1006.08 1006.62 1007.20 1007.95 1008.67 1009.32 1010.08 1010.58 1011.10 1011.64 1012.00 1011.16 1011.55 1013.91 1014.15 1013.86 1013.63 1013.25 1013.34 1013.68 1014.79 1014.70 1015.36 1016.10 1016.87 1017.43 1018.01 1018.64 1018.94 1019.33 1019.48 1019.97 1020.35 1020.81 1020.90 1020.57 1019.92 1019.17 1018.77 1018.94 1018.87 1018.64 1018.19 1018.40 1018.23
1005.48 1006.06 1006.62 1007.18 1007.93 1008.61 1009.35 1009.91 1010.39 1010.88 1010.98 1011.33 1011.55 1011.23 1012.80 1014.11 1014.06 1013.87 1013.40 1013.38 1013.87 1014.36 1015.06 1015.73 1015.79 1016.35 1017.18 1017.24 1017.96 1018.55 1019.04 1019.18 1019.50 1019.71 1019.69 1020.24 1020.54 1020.72 1020.20 1019.33 1018.98 1018.83 1018.61 1018.85 1018.78 1018.66 1018.97
1005.95 1006.39 1007.00 1007.70 1008.35 1008.97 1009.66 1010.17 1010.54 1011.08 1010.78 1010.76 1011.49 1011.95 1012.87 1014.43 1014.09 1014.03 1013.64 1014.20 1014.75 1015.15 1015.83 1016.04 1016.38 1016.57 1017.17 1017.85 1018.80 1019.32 1019.42 1019.10 1019.40 1019.11 1019.35 1019.66 1020.12 1020.44 1020.35 1019.72 1018.88 1018.64 1018.73 1019.37 1019.47 1018.94 1019.25
1006.51 1006.99 1007.46 1008.06 1008.67 1009.44 1010.12 1010.69 1010.98 1011.16 1011.21 1011.45 1011.92 1011.96 1012.03 1013.88 1015.26 1014.98 1014.76 1014.79 1015.48 1016.14 1016.63 1016.70 1017.04 1017.18 1017.71 1019.05 1019.85 1020.39 1020.22 1019.87 1019.65 1019.22 1018.87 1019.48 1019.87 1020.51 1020.40 1020.24 1019.47 1019.05 1018.60 1019.06 1019.20 1019.52 1019.41
1006.63 1007.33 1007.99 1008.64 1009.16 1009.79 1010.39 1010.88 1011.25 1011.42 1011.51 1011.71 1012.65 1012.29 1012.82 1014.52 1015.50 1015.05 1015.05 1015.37 1015.87 1016.41 1017.13 1017.52 1017.70 1018.09 1018.42 1020.17 1020.83 1021.31 1020.96 1020.21 1019.89 1019.52 1019.53 1019.93 1020.38 1020.69 1020.71 1020.50 1019.74 1019.31 1019.11 1018.63 1019.59 1020.37 1019.75
1006.69 1007.43 1008.15 1008.83 1009.40 1010.01 1010.69 1011.08 1011.40 1011.62 1011.89 1012.04 1013.27 1012.76 1013.01 1015.12 1015.90 1015.53 1015.40 1015.65 1016.06 1016.37 1017.35 1018.09 1018.40 1018.92 1019.70 1020.64 1021.64 1021.72 1021.46 1020.92 1020.51 1020.29 1020.02 1020.40 1020.84 1021.06 1021.05 1020.82 1020.47 1019.97 1019.34 1019.75 1020.68 1020.26 1020.18
1006.88 1007.58 1008.22 1008.90 1009.64 1010.26 1010.80 1011.26 1011.65 1012.05 1012.19 1012.18 1013.60 1013.75 1013.69 1014.84 1016.20 1015.99 1015.91 1015.72 1015.83 1016.28 1016.96 1018.06 1018.62 1019.05 1019.81 1020.96 1021.85 1021.98 1022.01 1021.69 1021.45 1021.27 1020.59 1020.88 1020.87 1021.12 1021.20 1020.61 1020.18 1020.29 1020.65 1020.71 1020.79 1020.79 1020.59
Wind_Speed
25 23 22 21 20 19 18 17 14 12 11 9 7 8 9 10 12 11 13 15 15 13 13 13 13 15 5 2 3 4 6 6 3 2 4 4 5 2 2 4 6 4 4 7 6 10 8
26 26 25 22 22 21 20 18 15 13 12 10 8 7 9 8 11 12 13 15 16 16 13 12 12 9 3 1 3 4 6 5 4 4 4 2 1 3 2 3 0 6 6 13 8 11 6
29 28 27 25 23 22 21 18 16 15 13 11 9 7 7 10 10 13 12 16 17 16 15 9 8 3 2 8 2 5 4 2 2 0 3 3 5 2 0 5 3 6 8 7 3 5 7
32 31 30 27 25 25 23 20 18 17 15 12 10 7 5 9 9 13 14 14 17 18 13 5 3 1 5 3 1 2 4 6 4 4 3 5 4 4 2 3 8 7 4 6 8 10 6
33 32 32 30 28 26 24 23 21 20 17 13 10 8 4 8 9 11 15 17 16 7 4 2 3 2 6 4 2 3 0 2 5 4 4 4 4 3 6 4 6 7 6 15 11 12 9
34 34 34 33 31 30 27 24 22 20 18 14 11 8 5 6 9 10 16 15 8 5 3 2 0 3 3 2 1 4 2 1 4 2 6 9 6 4 5 6 2 6 7 6 15 8 9
34 36 36 35 33 32 30 28 25 22 19 17 13 9 5 4 9 11 9 5 4 3 2 6 3 3 1 5 1 1 2 3 5 8 3 5 8 3 2 1 3 5 6 15 17 11 16
29 36 36 36 35 35 33 30 27 23 20 17 13 8 3 7 8 11 3 3 2 2 4 6 6 4 4 2 1 3 2 4 4 3 3 6 4 2 2 4 4 5 12 17 22 9 14
31 32 37 37 37 37 35 32 28 24 22 20 15 7 1 5 9 3 2 3 3 4 2 4 5 4 4 5 3 3 4 4 3 2 1 5 3 2 5 5 7 4 7 13 14 27 24
37 36 40 38 39 38 36 34 30 26 25 20 15 10 6 3 5 2 3 3 3 3 4 4 5 6 5 5 2 4 3 4 2 2 3 4 1 6 4 2 7 10 6 11 19 17 14
40 41 44 41 40 39 37 35 32 30 25 20 16 13 8 3 5 5 5 4 4 4 3 7 5 2 5 6 7 1 4 4 3 1 5 1 4 6 1 1 13 9 9 13 23 20 16
43 42 44 43 40 40 39 36 34 29 26 21 17 15 11 5 2 3 5 7 5 3 7 7 5 7 5 4 3 4 4 6 3 4 4 4 3 2 2 4 4 8 12 23 9 1 5
39 42 44 44 42 41 37 35 31 28 27 22 16 13 7 5 6 5 5 5 5 6 4 6 6 5 5 5 4 3 3 4 3 4 4 4 3 4 3 10 3 9 12 6 7 3 10
33 41 42 42 41 39 37 35 30 27 24 20 16 12 5 3 4 6 3 5 5 9 7 3 4 6 4 5 3 3 3 2 2 5 2 3 5 3 5 1 5 4 3 2 7 9 20
29 39 42 44 43 41 37 35 32 28 27 18 15 2 4 3 5 3 5 3 7 3 5 7 5 4 2 3 6 4 2 4 2 3 4 2 3 2 4 2 4 3 1 8 9 14 10
29 38 39 39 41 38 35 33 31 30 25 23 2 3 3 6 6 4 4 5 2 2 3 4 5 5 5 4 4 3 2 3 1 3 4 1 3 1 4 2 4 4 4 6 4 7 10
26 39 40 35 36 34 31 33 28 29 25 20 3 5 3 5 3 5 5 6 5 3 3 3 3 5 4 5 5 3 5 2 2 3 2 3 4 5 5 2 6 5 3 4 5 5 6
32 31 33 34 32 31 30 28 28 25 22 10 5 4 3 4 4 3 4 6 7 4 2 3 3 5 5 5 4 4 5 3 1 2 3 1 3 2 7 10 5 4 7 9 5 8 11
26 26 28 30 30 29 27 27 24 21 17 5 5 4 2 5 5 3 3 4 4 5 3 3 3 3 3 5 5 4 5 4 5 3 4 2 2 3 4 7 5 3 12 12 14 9 9
25 25 25 25 26 26 24 24 22 21 13 2 4 5 2 2 2 5 5 4 5 4 3 5 5 6 5 3 3 4 2 3 2 2 8 4 3 8 7 10 4 6 16 16 12 3 11
20 22 22 24 26 25 24 22 20 17 9 3 1 3 5 5 3 3 3 5 10 5 2 3 3 5 5 4 3 3 3 5 3 3 3 3 3 6 7 12 14 15 15 11 10 7 5
21 23 20 20 23 22 20 20 17 13 8 2 5 5 3 3 6 6 1 3 6 5 4 3 6 7 6 5 3 3 4 2 4 3 3 0 4 1 5 11 12 9 5 10 7 6 12
18 19 21 21 20 20 18 17 15 10 3 2 3 1 7 0 4 5 4 5 6 7 8 5 13 7 7 7 6 7 8 7 6 6 4 3 3 1 5 6 10 4 4 9 9 8 9
19 21 21 20 19 18 18 16 13 7 3 3 1 5 5 2 3 4 6 6 9 4 7 3 7 6 4 5 4 2 3 7 6 8 8 5 4 2 5 5 2 4 2 7 12 2 12
16 18 21 20 19 17 16 14 10 6 8 4 2 4 4 4 3 4 10 11 8 8 5 5 2 4 7 5 4 4 4 2 2 5 8 8 4 1 2 2 2 2 1 6 6 3 13
19 15 17 17 17 17 16 14 12 9 7 4 2 1 5 6 2 3 4 6 5 4 2 3 5 4 7 4 3 2 2 1 2 1 3 5 1 3 1 2 4 4 9 9 5 6 13
21 19 19 18 17 17 16 15 12 10 8 4 2 3 4 6 2 2 4 5 4 4 4 3 3 3 4 2 3 2 3 2 2 1 1 2 1 1 2 4 5 3 14 9 3 6 14
17 19 19 20 18 17 16 15 13 12 8 4 1 4 5 4 2 4 3 4 3 3 5 3 4 4 3 4 3 3 2 1 1 1 1 3 1 1 1 1 5 4 3 4 5 8 11
18 17 19 19 18 17 17 15 14 12 9 6 4 4 2 6 3 2 2 0 4 4 6 3 4 2 3 4 1 2 1 2 3 2 4 2 6 4 6 5 1 2 0 4 6 6 8
Wind_Direction
217 222 220 218 218 216 212 212 218 225 228 234 250 280 300 315 320 327 329 326 324 325 327 331 342 345 27 9 263 331 345 357 28 9 41 15 43 19 348 300 332 206 323 320 312 281 277
216 215 215 216 214 212 211 210 209 218 227 223 238 270 294 308 318 322 327 325 323 322 328 330 348 352 41 267 147 347 347 13 10 8 345 352 171 192 256 286 59 315 290 296 297 289 266
213 213 214 210 211 209 206 205 204 208 223 220 222 247 288 303 319 318 328 326 320 321 319 322 348 22 58 232 167 339 8 288 297 310 290 262 156 101 24 326 301 271 317 349 304 7 302
213 208 210 211 207 205 202 196 198 199 211 215 231 239 276 297 316 319 327 325 317 317 309 295 352 62 252 263 141 17 341 335 321 284 214 265 133 90 105 293 353 349 29 6 344 341 355
214 212 207 207 204 204 202 192 191 193 203 206 220 242 242 294 319 325 331 321 305 306 218 256 85 60 281 306 360 297 127 309 293 332 29 97 86 80 30 42 6 12 320 322 329 350 348
216 212 207 204 202 198 195 191 188 188 193 196 207 221 258 296 311 343 334 309 297 297 104 106 262 350 250 223 316 326 354 315 56 357 16 35 48 65 33 51 322 297 305 282 296 305 313
233 214 210 203 200 195 194 186 185 185 182 188 197 213 238 299 332 357 8 356 27 18 57 194 214 262 257 298 271 196 313 69 37 47 57 355 66 62 318 7 234 267 282 299 293 300 297
257 227 210 204 196 194 192 186 179 178 181 182 186 199 241 352 331 358 70 89 61 147 318 228 253 257 236 179 58 258 108 88 65 72 29 22 124 61 96 25 10 325 301 298 288 317 309
251 242 211 204 197 192 187 180 175 174 177 175 181 171 98 294 326 83 125 93 109 101 105 286 203 197 198 152 219 233 129 138 125 96 84 145 70 23 52 331 317 300 274 298 293 313 299
247 236 227 203 196 188 184 177 170 171 174 177 165 166 181 296 64 164 123 136 92 94 44 227 205 243 156 138 264 222 178 134 93 162 131 114 356 17 360 310 348 328 267 302 300 309 299
251 234 220 203 191 183 176 173 166 170 175 167 173 165 163 123 145 157 148 118 105 49 266 146 168 157 141 157 151 56 360 52 116 148 90 302 328 314 29 36 347 273 308 301 296 278 298
248 225 209 193 182 175 173 168 165 168 165 169 175 163 151 118 101 179 128 99 60 85 239 193 148 177 146 174 174 93 48 47 67 92 39 199 264 159 189 328 296 306 341 312 298 220 250
230 210 197 182 174 170 168 160 159 160 158 165 167 166 156 150 173 166 134 81 95 208 135 169 180 162 144 153 123 88 79 39 89 50 20 341 332 337 42 346 335 22 350 318 328 318 281
216 196 180 168 164 161 157 148 151 157 153 157 164 142 187 190 151 145 105 83 203 194 182 121 118 112 160 144 69 106 104 104 92 94 97 54 350 354 336 277 279 340 92 322 301 302 296
199 181 165 158 153 151 148 145 148 152 141 156 140 109 135 215 178 107 86 126 197 235 136 141 95 122 153 53 115 103 89 165 185 126 121 39 275 268 327 326 108 275 321 273 263 257 266
168 150 144 143 142 141 143 141 146 142 145 146 155 149 158 153 133 93 91 234 141 215 116 115 151 151 138 142 82 82 153 246 97 106 131 134 310 258 299 355 44 144 284 321 266 300 301
110 130 127 129 128 131 136 139 140 144 156 162 130 106 200 126 99 63 174 218 124 27 116 121 139 109 129 131 122 155 195 46 113 144 155 122 125 300 8 351 305 347 344 292 266 237 286
69 77 96 111 117 126 135 138 141 152 162 166 132 108 169 122 116 187 148 201 106 165 89 117 99 111 134 135 126 143 167 140 49 129 100 187 157 297 293 285 253 177 323 301 286 279 255
106 114 117 123 129 132 134 133 147 158 168 144 92 113 45 92 151 163 243 118 125 161 160 138 114 86 105 140 110 134 145 112 90 104 128 164 324 342 342 2 356 324 305 307 300 265 302
125 127 130 130 131 133 132 143 155 170 192 111 116 107 67 88 288 164 141 158 127 65 75 89 106 84 90 86 72 130 113 106 65 94 96 124 158 163 191 233 252 302 294 313 314 298 307
130 131 137 142 140 138 143 154 160 172 179 62 97 165 176 176 222 120 144 166 135 139 85 110 87 126 135 118 97 96 70 357 338 81 82 96 208 193 231 256 271 266 288 310 308 345 346
146 141 142 138 133 138 143 151 158 160 133 98 112 139 205 95 111 131 176 159 134 105 133 122 113 114 109 113 132 147 122 185 238 11 94 266 258 235 268 253 252 257 315 306 301 332 336
146 144 143 140 137 138 144 145 153 154 104 96 228 340 84 62 126 118 205 139 131 104 18 146 137 109 110 154 156 189 194 189 213 174 160 200 206 68 271 297 304 149 305 331 308 2 342
149 153 147 145 145 145 147 145 147 133 171 166 189 79 97 90 123 162 147 101 122 110 124 78 96 99 155 128 130 77 215 226 217 235 176 192 165 175 266 297 333 216 213 349 322 330 7
152 151 153 153 152 142 141 141 140 146 40 69 69 96 118 122 89 54 103 112 90 86 94 120 77 129 134 67 68 20 350 72 214 191 191 196 136 232 234 257 224 310 82 348 331 306 9
159 157 149 148 143 142 142 143 133 118 84 79 43 285 76 112 360 324 104 124 121 122 80 85 43 126 75 79 82 102 196 196 207 100 163 148 139 162 283 250 240 224 317 331 283 243 358
160 159 157 155 148 146 147 139 135 122 78 85 45 21 102 98 359 26 99 132 119 96 100 61 101 59 64 87 92 162 231 245 171 135 318 45 13 167 281 250 285 322 315 313 182 285 336
154 160 163 155 152 147 146 143 138 126 86 78 39 352 97 94 18 28 67 108 82 89 131 201 70 358 51 77 135 211 169 282 55 309 176 160 135 222 287 313 281 1 352 61 309 323 326
167 156 157 154 150 150 150 146 138 128 89 76 61 357 27 82 130 5 359 59 90 159 126 39 137 107 154 98 153 102 177 31 161 245 352 269 180 195 183 224 200 103 78 315 316 314 327